Time,TemperatureF,DewpointF,PressureIn,WindDirection,WindDirectionDegrees,WindSpeedMPH,WindSpeedGustMPH,Humidity,HourlyPrecipIn,Conditions,Clouds,dailyrainin,SoftwareType,DateUTC
2013-01-15 00:00:00,34.9,22.8,30.56,ESE,119,3.6,3.6,61,0.00,,,0.00,VWS V13.01,2013-01-15 08:00:00,
2013-01-15 00:01:00,34.9,22.8,30.56,ESE,119,2.7,4.9,61,0.00,,,0.00,VWS V13.01,2013-01-15 08:01:00,
2013-01-15 00:02:00,34.9,22.8,30.56,ESE,119,2.7,3.6,61,0.00,,,0.00,VWS V13.01,2013-01-15 08:02:00,
2013-01-15 00:03:00,34.9,22.8,30.56,ESE,119,3.1,4.0,61,0.00,,,0.00,VWS V13.01,2013-01-15 08:03:00,
2013-01-15 00:04:00,34.9,23.2,30.56,ESE,119,3.6,4.9,62,0.00,,,0.00,VWS V13.01,2013-01-15 08:04:00,
2013-01-15 00:05:00,34.9,23.2,30.56,ESE,119,2.2,4.0,62,0.00,,,0.00,VWS V13.01,2013-01-15 08:05:00,
2013-01-15 00:06:00,34.9,23.2,30.56,ESE,119,2.7,3.6,62,0.00,,,0.00,VWS V13.01,2013-01-15 08:06:00,
2013-01-15 00:07:00,34.9,23.2,30.56,ESE,119,4.0,5.4,62,0.00,,,0.00,VWS V13.01,2013-01-15 08:07:00,
2013-01-15 00:08:00,34.9,23.2,30.56,ESE,119,2.7,4.0,62,0.00,,,0.00,VWS V13.01,2013-01-15 08:08:00,
2013-01-15 00:09:00,34.7,22.6,30.56,ESE,119,3.1,3.6,61,0.00,,,0.00,VWS V13.01,2013-01-15 08:09:00,
2013-01-15 00:10:00,34.7,22.6,30.56,ESE,119,2.7,4.9,61,0.00,,,0.00,VWS V13.01,2013-01-15 08:10:00,
2013-01-15 00:11:00,34.7,22.6,30.56,ESE,119,3.6,4.0,61,0.00,,,0.00,VWS V13.01,2013-01-15 08:11:00,
2013-01-15 00:12:00,34.7,22.6,30.56,ESE,119,3.6,3.6,61,0.00,,,0.00,VWS V13.01,2013-01-15 08:12:00,
2013-01-15 00:13:00,34.5,22.5,30.56,ESE,119,3.1,4.0,61,0.00,,,0.00,VWS V13.01,2013-01-15 08:13:00,
2013-01-15 00:14:00,34.5,22.5,30.56,ESE,119,6.3,6.3,61,0.00,,,0.00,VWS V13.01,2013-01-15 08:14:00,
2013-01-15 00:15:00,34.5,22.5,30.56,ESE,119,3.6,6.3,61,0.00,,,0.00,VWS V13.01,2013-01-15 08:15:00,
2013-01-15 00:16:00,34.5,22.5,30.56,ESE,119,4.0,5.4,61,0.00,,,0.00,VWS V13.01,2013-01-15 08:16:00,
2013-01-15 00:17:00,34.5,22.5,30.56,ESE,119,3.1,5.8,61,0.00,,,0.00,VWS V13.01,2013-01-15 08:17:00,
2013-01-15 00:18:00,34.5,22.5,30.56,ESE,119,4.0,5.8,61,0.00,,,0.00,VWS V13.01,2013-01-15 08:18:00,
2013-01-15 00:19:00,34.5,22.5,30.56,ESE,119,5.4,6.3,61,0.00,,,0.00,VWS V13.01,2013-01-15 08:19:00,
2013-01-15 00:20:00,34.5,22.5,30.56,ESE,119,5.8,5.8,61,0.00,,,0.00,VWS V13.01,2013-01-15 08:20:00,
2013-01-15 00:21:00,34.3,22.3,30.56,ESE,119,3.6,5.8,61,0.00,,,0.00,VWS V13.01,2013-01-15 08:21:00,
2013-01-15 00:22:00,34.3,22.3,30.56,ESE,119,3.6,4.0,61,0.00,,,0.00,VWS V13.01,2013-01-15 08:22:00,
2013-01-15 00:23:00,34.3,22.7,30.56,ESE,119,5.8,5.8,62,0.00,,,0.00,VWS V13.01,2013-01-15 08:23:00,
2013-01-15 00:24:00,34.3,22.7,30.56,ESE,119,3.6,4.9,62,0.00,,,0.00,VWS V13.01,2013-01-15 08:24:00,
2013-01-15 00:25:00,34.3,22.7,30.56,ESE,119,4.0,4.5,62,0.00,,,0.00,VWS V13.01,2013-01-15 08:25:00,
2013-01-15 00:26:00,34.3,22.7,30.56,ESE,119,4.9,5.8,62,0.00,,,0.00,VWS V13.01,2013-01-15 08:26:00,
2013-01-15 00:27:00,34.3,22.7,30.56,ESE,119,3.1,5.4,62,0.00,,,0.00,VWS V13.01,2013-01-15 08:27:00,
2013-01-15 00:28:00,34.3,23.1,30.56,ESE,119,3.6,4.0,63,0.00,,,0.00,VWS V13.01,2013-01-15 08:28:00,
2013-01-15 00:29:00,34.3,23.1,30.56,ESE,119,6.3,6.3,63,0.00,,,0.00,VWS V13.01,2013-01-15 08:29:00,
2013-01-15 00:30:00,34.3,23.1,30.56,ESE,119,6.3,6.3,63,0.00,,,0.00,VWS V13.01,2013-01-15 08:30:00,
2013-01-15 00:31:00,34.3,23.1,30.56,ESE,119,3.1,6.3,63,0.00,,,0.00,VWS V13.01,2013-01-15 08:31:00,
2013-01-15 00:32:00,34.3,23.4,30.56,ESE,119,4.9,5.4,64,0.00,,,0.00,VWS V13.01,2013-01-15 08:32:00,
2013-01-15 00:33:00,34.3,23.4,30.56,ESE,119,4.9,4.9,64,0.00,,,0.00,VWS V13.01,2013-01-15 08:33:00,
2013-01-15 00:34:00,34.3,23.4,30.56,ESE,119,4.0,5.8,64,0.00,,,0.00,VWS V13.01,2013-01-15 08:34:00,
2013-01-15 00:35:00,34.3,23.4,30.56,ESE,119,2.7,4.9,64,0.00,,,0.00,VWS V13.01,2013-01-15 08:35:00,
2013-01-15 00:36:00,34.3,23.4,30.56,ESE,119,6.3,6.3,64,0.00,,,0.00,VWS V13.01,2013-01-15 08:36:00,
2013-01-15 00:37:00,34.3,23.8,30.56,ESE,119,4.9,6.3,65,0.00,,,0.00,VWS V13.01,2013-01-15 08:37:00,
2013-01-15 00:38:00,34.3,23.8,30.56,ESE,119,4.0,4.9,65,0.00,,,0.00,VWS V13.01,2013-01-15 08:38:00,
2013-01-15 00:39:00,34.3,23.8,30.56,ESE,119,6.7,6.7,65,0.00,,,0.00,VWS V13.01,2013-01-15 08:39:00,
2013-01-15 00:40:00,34.5,24.0,30.56,ESE,119,3.1,6.7,65,0.00,,,0.00,VWS V13.01,2013-01-15 08:40:00,
2013-01-15 00:41:00,34.5,24.4,30.56,ESE,119,4.0,5.4,66,0.00,,,0.00,VWS V13.01,2013-01-15 08:41:00,
2013-01-15 00:42:00,34.5,24.4,30.56,ESE,119,5.4,5.4,66,0.00,,,0.00,VWS V13.01,2013-01-15 08:42:00,
2013-01-15 00:43:00,34.5,24.4,30.56,ESE,119,6.3,6.3,66,0.00,,,0.00,VWS V13.01,2013-01-15 08:43:00,
2013-01-15 00:44:00,34.5,24.7,30.56,ESE,119,6.3,6.3,67,0.00,,,0.00,VWS V13.01,2013-01-15 08:44:00,
2013-01-15 00:45:00,34.5,24.7,30.56,ESE,119,6.3,6.3,67,0.00,,,0.00,VWS V13.01,2013-01-15 08:45:00,
2013-01-15 00:46:00,34.5,24.7,30.56,ESE,119,5.4,6.3,67,0.00,,,0.00,VWS V13.01,2013-01-15 08:46:00,
2013-01-15 00:47:00,34.5,24.7,30.56,ESE,119,5.8,5.8,67,0.00,,,0.00,VWS V13.01,2013-01-15 08:47:00,
2013-01-15 00:48:00,34.5,24.7,30.56,ESE,119,3.6,7.2,67,0.00,,,0.00,VWS V13.01,2013-01-15 08:48:00,
2013-01-15 00:49:00,34.5,24.7,30.56,ESE,119,2.7,4.5,67,0.00,,,0.00,VWS V13.01,2013-01-15 08:49:00,
2013-01-15 00:50:00,34.5,25.1,30.56,ESE,119,2.7,6.3,68,0.00,,,0.00,VWS V13.01,2013-01-15 08:50:00,
2013-01-15 00:51:00,34.5,25.1,30.56,ESE,119,3.1,3.1,68,0.00,,,0.00,VWS V13.01,2013-01-15 08:51:00,
2013-01-15 00:52:00,34.5,25.1,30.56,ESE,119,3.1,3.6,68,0.00,,,0.00,VWS V13.01,2013-01-15 08:52:00,
2013-01-15 00:53:00,34.5,25.1,30.56,ESE,119,0.0,3.1,68,0.00,,,0.00,VWS V13.01,2013-01-15 08:53:00,
2013-01-15 00:54:00,34.5,25.1,30.56,ESE,119,0.0,0.0,68,0.00,,,0.00,VWS V13.01,2013-01-15 08:54:00,
2013-01-15 00:55:00,34.5,25.4,30.56,ESE,119,4.9,4.9,69,0.00,,,0.00,VWS V13.01,2013-01-15 08:55:00,
2013-01-15 00:56:00,34.5,25.4,30.56,ESE,119,4.0,4.9,69,0.00,,,0.00,VWS V13.01,2013-01-15 08:56:00,
2013-01-15 00:57:00,34.7,25.9,30.56,ESE,119,0.0,4.9,70,0.00,,,0.00,VWS V13.01,2013-01-15 08:57:00,
2013-01-15 00:58:00,34.7,25.9,30.56,ESE,119,2.7,2.7,70,0.00,,,0.00,VWS V13.01,2013-01-15 08:58:00,
2013-01-15 00:59:00,34.9,26.1,30.56,ESE,119,4.0,4.0,70,0.00,,,0.00,VWS V13.01,2013-01-15 08:59:00,
2013-01-15 01:00:00,34.9,26.5,30.56,ESE,119,2.7,4.0,71,0.00,,,0.00,VWS V13.01,2013-01-15 09:00:00,
2013-01-15 01:01:00,34.9,26.5,30.56,ESE,119,2.7,3.1,71,0.00,,,0.00,VWS V13.01,2013-01-15 09:01:00,
2013-01-15 01:02:00,34.9,26.5,30.56,ESE,119,2.2,2.7,71,0.00,,,0.00,VWS V13.01,2013-01-15 09:02:00,
2013-01-15 01:03:00,35.1,26.6,30.56,ESE,119,3.1,3.6,71,0.00,,,0.00,VWS V13.01,2013-01-15 09:03:00,
2013-01-15 01:04:00,35.1,26.6,30.56,ESE,119,3.1,3.1,71,0.00,,,0.00,VWS V13.01,2013-01-15 09:04:00,
2013-01-15 01:05:00,35.1,26.6,30.56,ESE,119,3.1,3.6,71,0.00,,,0.00,VWS V13.01,2013-01-15 09:05:00,
2013-01-15 01:06:00,35.1,26.6,30.56,ESE,119,3.1,3.6,71,0.00,,,0.00,VWS V13.01,2013-01-15 09:06:00,
2013-01-15 01:07:00,35.1,26.6,30.56,ESE,119,4.9,4.9,71,0.00,,,0.00,VWS V13.01,2013-01-15 09:07:00,
2013-01-15 01:08:00,35.1,26.6,30.56,ESE,119,2.7,4.9,71,0.00,,,0.00,VWS V13.01,2013-01-15 09:08:00,
2013-01-15 01:09:00,35.1,26.3,30.56,ESE,119,5.4,5.4,70,0.00,,,0.00,VWS V13.01,2013-01-15 09:09:00,
2013-01-15 01:10:00,35.1,26.3,30.56,ESE,119,3.6,6.3,70,0.00,,,0.00,VWS V13.01,2013-01-15 09:10:00,
2013-01-15 01:11:00,35.1,26.3,30.56,ESE,119,2.7,3.6,70,0.00,,,0.00,VWS V13.01,2013-01-15 09:11:00,
2013-01-15 01:12:00,35.2,26.5,30.56,ESE,119,3.1,3.1,70,0.00,,,0.00,VWS V13.01,2013-01-15 09:12:00,
2013-01-15 01:13:00,35.2,26.5,30.56,ESE,119,3.1,3.1,70,0.00,,,0.00,VWS V13.01,2013-01-15 09:13:00,
2013-01-15 01:14:00,35.2,26.5,30.56,ESE,119,3.1,3.1,70,0.00,,,0.00,VWS V13.01,2013-01-15 09:14:00,
2013-01-15 01:15:00,35.2,26.1,30.56,ESE,119,2.7,3.6,69,0.00,,,0.00,VWS V13.01,2013-01-15 09:15:00,
2013-01-15 01:16:00,35.2,26.1,30.56,ESE,119,4.0,4.0,69,0.00,,,0.00,VWS V13.01,2013-01-15 09:16:00,
2013-01-15 01:17:00,35.2,26.1,30.56,ESE,119,5.4,6.3,69,0.00,,,0.00,VWS V13.01,2013-01-15 09:17:00,
2013-01-15 01:18:00,35.2,25.8,30.56,ESE,119,5.4,7.6,68,0.00,,,0.00,VWS V13.01,2013-01-15 09:18:00,
2013-01-15 01:19:00,35.2,25.4,30.56,ESE,119,4.9,5.4,67,0.00,,,0.00,VWS V13.01,2013-01-15 09:19:00,
2013-01-15 01:20:00,35.2,25.4,30.56,ESE,119,3.1,4.9,67,0.00,,,0.00,VWS V13.01,2013-01-15 09:20:00,
2013-01-15 01:21:00,35.2,25.0,30.56,ESE,119,3.1,5.4,66,0.00,,,0.00,VWS V13.01,2013-01-15 09:21:00,
2013-01-15 01:22:00,35.2,25.0,30.56,ESE,119,4.0,5.8,66,0.00,,,0.00,VWS V13.01,2013-01-15 09:22:00,
2013-01-15 01:23:00,35.2,24.7,30.56,ESE,119,3.6,4.0,65,0.00,,,0.00,VWS V13.01,2013-01-15 09:23:00,
2013-01-15 01:24:00,35.2,24.7,30.56,ESE,119,2.7,3.6,65,0.00,,,0.00,VWS V13.01,2013-01-15 09:24:00,
2013-01-15 01:25:00,35.2,24.3,30.56,ESE,119,3.6,4.0,64,0.00,,,0.00,VWS V13.01,2013-01-15 09:25:00,
2013-01-15 01:26:00,35.2,24.3,30.56,ESE,119,3.6,3.6,64,0.00,,,0.00,VWS V13.01,2013-01-15 09:26:00,
2013-01-15 01:27:00,35.1,24.1,30.56,ESE,119,2.7,3.6,64,0.00,,,0.00,VWS V13.01,2013-01-15 09:27:00,
2013-01-15 01:28:00,35.1,24.1,30.56,ESE,119,5.4,5.4,64,0.00,,,0.00,VWS V13.01,2013-01-15 09:28:00,
2013-01-15 01:29:00,35.1,23.8,30.56,ESE,119,5.4,5.4,63,0.00,,,0.00,VWS V13.01,2013-01-15 09:29:00,
2013-01-15 01:30:00,35.2,23.9,30.56,ESE,119,3.6,5.4,63,0.00,,,0.00,VWS V13.01,2013-01-15 09:30:00,
2013-01-15 01:31:00,35.2,23.9,30.56,ESE,119,4.9,4.9,63,0.00,,,0.00,VWS V13.01,2013-01-15 09:31:00,
2013-01-15 01:32:00,35.2,23.9,30.56,ESE,119,4.9,7.2,63,0.00,,,0.00,VWS V13.01,2013-01-15 09:32:00,
2013-01-15 01:33:00,35.2,23.9,30.56,ESE,119,6.3,6.3,63,0.00,,,0.00,VWS V13.01,2013-01-15 09:33:00,
2013-01-15 01:34:00,35.4,24.1,30.56,ESE,119,3.6,4.0,63,0.00,,,0.00,VWS V13.01,2013-01-15 09:34:00,
2013-01-15 01:35:00,35.4,24.1,30.56,ESE,119,2.7,4.9,63,0.00,,,0.00,VWS V13.01,2013-01-15 09:35:00,
2013-01-15 01:36:00,35.4,23.7,30.56,ESE,119,5.8,6.3,62,0.00,,,0.00,VWS V13.01,2013-01-15 09:36:00,
2013-01-15 01:37:00,35.4,23.7,30.56,ESE,119,4.9,5.8,62,0.00,,,0.00,VWS V13.01,2013-01-15 09:37:00,
2013-01-15 01:38:00,35.4,23.7,30.56,ESE,119,3.6,4.9,62,0.00,,,0.00,VWS V13.01,2013-01-15 09:38:00,
2013-01-15 01:39:00,35.4,23.3,30.56,ESE,119,5.4,7.6,61,0.00,,,0.00,VWS V13.01,2013-01-15 09:39:00,
2013-01-15 01:40:00,35.4,23.3,30.56,ESE,119,7.2,7.2,61,0.00,,,0.00,VWS V13.01,2013-01-15 09:40:00,
2013-01-15 01:41:00,35.4,23.3,30.56,ESE,119,3.1,7.6,61,0.00,,,0.00,VWS V13.01,2013-01-15 09:41:00,
2013-01-15 01:42:00,35.4,23.3,30.56,ESE,119,5.4,8.1,61,0.00,,,0.00,VWS V13.01,2013-01-15 09:42:00,
2013-01-15 01:43:00,35.4,23.3,30.56,ESE,119,6.3,7.6,61,0.00,,,0.00,VWS V13.01,2013-01-15 09:43:00,
2013-01-15 01:44:00,35.4,22.9,30.56,ESE,119,7.6,8.7,60,0.00,,,0.00,VWS V13.01,2013-01-15 09:44:00,
2013-01-15 01:45:00,35.4,22.9,30.56,ESE,119,4.0,7.6,60,0.00,,,0.00,VWS V13.01,2013-01-15 09:45:00,
2013-01-15 01:46:00,35.4,22.9,30.56,ESE,119,3.6,4.0,60,0.00,,,0.00,VWS V13.01,2013-01-15 09:46:00,
2013-01-15 01:47:00,35.4,23.3,30.56,ESE,119,4.0,6.3,61,0.00,,,0.00,VWS V13.01,2013-01-15 09:47:00,
2013-01-15 01:48:00,35.4,23.3,30.56,ESE,119,3.1,6.3,61,0.00,,,0.00,VWS V13.01,2013-01-15 09:48:00,
2013-01-15 01:49:00,35.4,23.3,30.56,ESE,119,3.6,5.8,61,0.00,,,0.00,VWS V13.01,2013-01-15 09:49:00,
2013-01-15 01:50:00,35.4,23.3,30.56,ESE,119,5.4,6.3,61,0.00,,,0.00,VWS V13.01,2013-01-15 09:50:00,
2013-01-15 01:51:00,35.4,23.3,30.56,ESE,119,4.0,7.6,61,0.00,,,0.00,VWS V13.01,2013-01-15 09:51:00,
2013-01-15 01:52:00,35.4,23.3,30.56,ESE,119,3.6,6.3,61,0.00,,,0.00,VWS V13.01,2013-01-15 09:52:00,
2013-01-15 01:53:00,35.4,23.3,30.56,ESE,119,5.8,6.3,61,0.00,,,0.00,VWS V13.01,2013-01-15 09:53:00,
2013-01-15 01:54:00,35.4,23.3,30.56,ESE,119,4.0,6.3,61,0.00,,,0.00,VWS V13.01,2013-01-15 09:54:00,
2013-01-15 01:55:00,35.4,23.7,30.56,ESE,119,4.0,6.3,62,0.00,,,0.00,VWS V13.01,2013-01-15 09:55:00,
2013-01-15 01:56:00,35.4,23.7,30.56,ESE,119,7.6,7.6,62,0.00,,,0.00,VWS V13.01,2013-01-15 09:56:00,
2013-01-15 01:57:00,35.4,23.7,30.56,ESE,119,8.3,8.3,62,0.00,,,0.00,VWS V13.01,2013-01-15 09:57:00,
2013-01-15 01:58:00,35.4,23.7,30.56,ESE,119,5.8,8.3,62,0.00,,,0.00,VWS V13.01,2013-01-15 09:58:00,
2013-01-15 01:59:00,35.4,23.7,30.56,ESE,119,6.3,6.3,62,0.00,,,0.00,VWS V13.01,2013-01-15 09:59:00,
2013-01-15 02:00:00,35.4,23.7,30.56,ESE,119,4.5,6.3,62,0.00,,,0.00,VWS V13.01,2013-01-15 10:00:00,
2013-01-15 02:01:00,35.4,24.1,30.56,ESE,119,5.8,5.8,63,0.00,,,0.00,VWS V13.01,2013-01-15 10:01:00,
2013-01-15 02:02:00,35.4,24.1,30.56,ESE,119,8.1,8.1,63,0.00,,,0.00,VWS V13.01,2013-01-15 10:02:00,
2013-01-15 02:03:00,35.4,24.1,30.56,ESE,119,4.0,8.1,63,0.00,,,0.00,VWS V13.01,2013-01-15 10:03:00,
2013-01-15 02:04:00,35.4,24.1,30.56,ESE,119,3.1,6.3,63,0.00,,,0.00,VWS V13.01,2013-01-15 10:04:00,
2013-01-15 02:05:00,35.4,24.1,30.59,ESE,119,5.8,5.8,63,0.00,,,0.00,VWS V13.01,2013-01-15 10:05:00,
2013-01-15 02:06:00,35.4,24.1,30.59,ESE,119,5.8,5.8,63,0.00,,,0.00,VWS V13.01,2013-01-15 10:06:00,
2013-01-15 02:07:00,35.4,24.1,30.59,ESE,119,5.8,5.8,63,0.00,,,0.00,VWS V13.01,2013-01-15 10:07:00,
2013-01-15 02:08:00,35.4,24.1,30.59,ESE,119,4.0,5.8,63,0.00,,,0.00,VWS V13.01,2013-01-15 10:08:00,
2013-01-15 02:09:00,35.4,24.5,30.59,ESE,119,3.6,5.8,64,0.00,,,0.00,VWS V13.01,2013-01-15 10:09:00,
2013-01-15 02:10:00,35.4,24.5,30.59,ESE,119,2.7,5.8,64,0.00,,,0.00,VWS V13.01,2013-01-15 10:10:00,
2013-01-15 02:11:00,35.4,24.5,30.59,ESE,119,3.1,5.8,64,0.00,,,0.00,VWS V13.01,2013-01-15 10:11:00,
2013-01-15 02:12:00,35.6,24.6,30.59,ESE,119,5.8,6.3,64,0.00,,,0.00,VWS V13.01,2013-01-15 10:12:00,
2013-01-15 02:13:00,35.6,24.6,30.59,ESE,119,5.4,6.3,64,0.00,,,0.00,VWS V13.01,2013-01-15 10:13:00,
2013-01-15 02:14:00,35.6,24.6,30.59,ESE,119,5.4,5.8,64,0.00,,,0.00,VWS V13.01,2013-01-15 10:14:00,
2013-01-15 02:15:00,35.6,24.6,30.59,ESE,119,5.4,6.3,64,0.00,,,0.00,VWS V13.01,2013-01-15 10:15:00,
2013-01-15 02:16:00,35.6,24.6,30.59,ESE,119,5.4,5.4,64,0.00,,,0.00,VWS V13.01,2013-01-15 10:16:00,
2013-01-15 02:17:00,35.6,24.6,30.59,ESE,119,6.3,6.3,64,0.00,,,0.00,VWS V13.01,2013-01-15 10:17:00,
2013-01-15 02:18:00,35.6,24.6,30.59,ESE,119,4.5,6.3,64,0.00,,,0.00,VWS V13.01,2013-01-15 10:18:00,
2013-01-15 02:19:00,35.6,25.0,30.59,ESE,119,4.9,5.8,65,0.00,,,0.00,VWS V13.01,2013-01-15 10:19:00,
2013-01-15 02:20:00,35.6,25.0,30.59,ESE,119,5.4,8.1,65,0.00,,,0.00,VWS V13.01,2013-01-15 10:20:00,
2013-01-15 02:21:00,35.6,25.0,30.59,ESE,119,5.8,6.3,65,0.00,,,0.00,VWS V13.01,2013-01-15 10:21:00,
2013-01-15 02:22:00,35.6,25.0,30.59,ESE,119,5.8,8.7,65,0.00,,,0.00,VWS V13.01,2013-01-15 10:22:00,
2013-01-15 02:23:00,35.6,25.0,30.59,ESE,119,5.4,8.7,65,0.00,,,0.00,VWS V13.01,2013-01-15 10:23:00,
2013-01-15 02:24:00,35.8,25.2,30.59,ESE,119,5.8,6.7,65,0.00,,,0.00,VWS V13.01,2013-01-15 10:24:00,
2013-01-15 02:25:00,35.8,25.2,30.59,ESE,119,6.3,6.3,65,0.00,,,0.00,VWS V13.01,2013-01-15 10:25:00,
2013-01-15 02:26:00,35.8,25.2,30.59,ESE,119,5.8,6.3,65,0.00,,,0.00,VWS V13.01,2013-01-15 10:26:00,
2013-01-15 02:27:00,35.8,25.5,30.59,ESE,119,3.1,5.4,66,0.00,,,0.00,VWS V13.01,2013-01-15 10:27:00,
2013-01-15 02:28:00,35.8,25.5,30.59,ESE,119,3.1,5.4,66,0.00,,,0.00,VWS V13.01,2013-01-15 10:28:00,
2013-01-15 02:29:00,35.8,25.5,30.59,ESE,119,3.1,6.3,66,0.00,,,0.00,VWS V13.01,2013-01-15 10:29:00,
2013-01-15 02:30:00,35.8,25.5,30.59,ESE,119,3.1,5.4,66,0.00,,,0.00,VWS V13.01,2013-01-15 10:30:00,
2013-01-15 02:31:00,35.8,25.5,30.59,ESE,119,5.4,5.8,66,0.00,,,0.00,VWS V13.01,2013-01-15 10:31:00,
2013-01-15 02:32:00,36.0,25.7,30.59,ESE,119,2.7,5.4,66,0.00,,,0.00,VWS V13.01,2013-01-15 10:32:00,
2013-01-15 02:33:00,36.0,25.7,30.59,ESE,119,6.3,6.3,66,0.00,,,0.00,VWS V13.01,2013-01-15 10:33:00,
2013-01-15 02:34:00,36.0,25.7,30.59,ESE,119,5.8,6.3,66,0.00,,,0.00,VWS V13.01,2013-01-15 10:34:00,
2013-01-15 02:35:00,36.0,25.7,30.59,ESE,119,3.1,5.8,66,0.00,,,0.00,VWS V13.01,2013-01-15 10:35:00,
2013-01-15 02:36:00,36.0,25.7,30.59,ESE,119,3.1,6.3,66,0.00,,,0.00,VWS V13.01,2013-01-15 10:36:00,
2013-01-15 02:37:00,36.0,25.4,30.59,ESE,119,3.6,4.9,65,0.00,,,0.00,VWS V13.01,2013-01-15 10:37:00,
2013-01-15 02:38:00,36.0,25.4,30.59,ESE,119,3.6,5.8,65,0.00,,,0.00,VWS V13.01,2013-01-15 10:38:00,
2013-01-15 02:39:00,36.0,25.4,30.59,ESE,119,5.8,8.3,65,0.00,,,0.00,VWS V13.01,2013-01-15 10:39:00,
2013-01-15 02:40:00,35.8,25.2,30.59,ESE,119,5.8,8.1,65,0.00,,,0.00,VWS V13.01,2013-01-15 10:40:00,
2013-01-15 02:41:00,35.8,24.8,30.59,ESE,119,5.4,9.2,64,0.00,,,0.00,VWS V13.01,2013-01-15 10:41:00,
2013-01-15 02:42:00,35.8,24.4,30.59,ESE,119,5.4,8.3,63,0.00,,,0.00,VWS V13.01,2013-01-15 10:42:00,
2013-01-15 02:43:00,35.8,24.4,30.59,ESE,119,4.0,8.3,63,0.00,,,0.00,VWS V13.01,2013-01-15 10:43:00,
2013-01-15 02:44:00,35.6,23.9,30.59,ESE,119,5.4,5.8,62,0.00,,,0.00,VWS V13.01,2013-01-15 10:44:00,
2013-01-15 02:45:00,35.6,23.9,30.59,ESE,119,5.8,5.8,62,0.00,,,0.00,VWS V13.01,2013-01-15 10:45:00,
2013-01-15 02:46:00,35.6,23.9,30.59,ESE,119,5.4,6.3,62,0.00,,,0.00,VWS V13.01,2013-01-15 10:46:00,
2013-01-15 02:47:00,35.4,23.7,30.59,ESE,119,4.0,5.8,62,0.00,,,0.00,VWS V13.01,2013-01-15 10:47:00,
2013-01-15 02:48:00,35.4,23.7,30.59,ESE,119,3.6,5.8,62,0.00,,,0.00,VWS V13.01,2013-01-15 10:48:00,
2013-01-15 02:49:00,35.4,23.7,30.59,ESE,119,4.0,5.4,62,0.00,,,0.00,VWS V13.01,2013-01-15 10:49:00,
2013-01-15 02:50:00,35.4,23.7,30.59,ESE,119,3.6,5.4,62,0.00,,,0.00,VWS V13.01,2013-01-15 10:50:00,
2013-01-15 02:51:00,35.4,23.7,30.59,ESE,119,3.1,5.8,62,0.00,,,0.00,VWS V13.01,2013-01-15 10:51:00,
2013-01-15 02:52:00,35.4,23.7,30.59,ESE,119,5.4,5.4,62,0.00,,,0.00,VWS V13.01,2013-01-15 10:52:00,
2013-01-15 02:53:00,35.4,23.7,30.59,ESE,119,5.4,5.8,62,0.00,,,0.00,VWS V13.01,2013-01-15 10:53:00,
2013-01-15 02:54:00,35.4,23.3,30.59,ESE,119,5.4,6.3,61,0.00,,,0.00,VWS V13.01,2013-01-15 10:54:00,
2013-01-15 02:55:00,35.2,23.1,30.59,ESE,119,4.0,5.8,61,0.00,,,0.00,VWS V13.01,2013-01-15 10:55:00,
2013-01-15 02:56:00,35.2,23.1,30.59,ESE,119,3.1,4.9,61,0.00,,,0.00,VWS V13.01,2013-01-15 10:56:00,
2013-01-15 02:57:00,35.2,23.1,30.59,ESE,119,4.9,6.3,61,0.00,,,0.00,VWS V13.01,2013-01-15 10:57:00,
2013-01-15 02:58:00,35.1,23.0,30.59,ESE,119,4.9,6.3,61,0.00,,,0.00,VWS V13.01,2013-01-15 10:58:00,
2013-01-15 02:59:00,35.1,23.0,30.59,ESE,119,4.9,5.4,61,0.00,,,0.00,VWS V13.01,2013-01-15 10:59:00,
2013-01-15 03:00:00,35.1,23.0,30.59,ESE,119,5.4,5.8,61,0.00,,,0.00,VWS V13.01,2013-01-15 11:00:00,
2013-01-15 03:01:00,35.1,23.0,30.59,ESE,119,5.8,5.8,61,0.00,,,0.00,VWS V13.01,2013-01-15 11:01:00,
2013-01-15 03:02:00,35.1,23.0,30.59,ESE,119,6.3,7.6,61,0.00,,,0.00,VWS V13.01,2013-01-15 11:02:00,
2013-01-15 03:03:00,35.1,23.0,30.59,ESE,119,5.4,8.3,61,0.00,,,0.00,VWS V13.01,2013-01-15 11:03:00,
2013-01-15 03:04:00,35.1,23.0,30.59,ESE,119,4.0,5.8,61,0.00,,,0.00,VWS V13.01,2013-01-15 11:04:00,
2013-01-15 03:05:00,34.9,22.8,30.59,ESE,119,5.4,5.8,61,0.00,,,0.00,VWS V13.01,2013-01-15 11:05:00,
2013-01-15 03:06:00,34.9,22.8,30.59,ESE,119,3.1,5.4,61,0.00,,,0.00,VWS V13.01,2013-01-15 11:06:00,
2013-01-15 03:07:00,34.9,22.8,30.59,ESE,119,5.8,6.3,61,0.00,,,0.00,VWS V13.01,2013-01-15 11:07:00,
2013-01-15 03:08:00,34.9,22.8,30.59,ESE,119,3.6,6.3,61,0.00,,,0.00,VWS V13.01,2013-01-15 11:08:00,
2013-01-15 03:09:00,34.9,22.8,30.59,ESE,119,4.0,6.3,61,0.00,,,0.00,VWS V13.01,2013-01-15 11:09:00,
2013-01-15 03:10:00,34.9,22.8,30.59,ESE,119,3.6,4.0,61,0.00,,,0.00,VWS V13.01,2013-01-15 11:10:00,
2013-01-15 03:11:00,34.7,23.0,30.59,ESE,119,4.9,4.9,62,0.00,,,0.00,VWS V13.01,2013-01-15 11:11:00,
2013-01-15 03:12:00,34.7,23.0,30.59,ESE,119,4.0,5.4,62,0.00,,,0.00,VWS V13.01,2013-01-15 11:12:00,
2013-01-15 03:13:00,34.7,23.0,30.59,ESE,119,5.4,5.4,62,0.00,,,0.00,VWS V13.01,2013-01-15 11:13:00,
2013-01-15 03:14:00,34.7,23.0,30.59,ESE,119,4.9,5.8,62,0.00,,,0.00,VWS V13.01,2013-01-15 11:14:00,
2013-01-15 03:15:00,34.7,23.0,30.59,ESE,119,3.6,5.8,62,0.00,,,0.00,VWS V13.01,2013-01-15 11:15:00,
2013-01-15 03:16:00,34.7,23.4,30.59,ESE,119,5.4,5.4,63,0.00,,,0.00,VWS V13.01,2013-01-15 11:16:00,
2013-01-15 03:17:00,34.7,23.4,30.59,ESE,119,4.9,7.6,63,0.00,,,0.00,VWS V13.01,2013-01-15 11:17:00,
2013-01-15 04:25:00,33.6,27.2,30.59,South,172,6.3,6.3,77,0.00,,,0.00,VWS V13.01,2013-01-15 12:25:00,
2013-01-15 04:30:00,33.6,27.2,30.59,South,172,5.4,6.3,77,0.00,,,0.00,VWS V13.01,2013-01-15 12:30:00,
2013-01-15 04:35:00,33.6,27.5,30.59,South,172,3.6,5.4,78,0.00,,,0.00,VWS V13.01,2013-01-15 12:35:00,
2013-01-15 04:40:00,33.4,27.3,30.59,South,172,3.1,3.6,78,0.00,,,0.00,VWS V13.01,2013-01-15 12:40:00,
2013-01-15 04:45:00,33.4,27.3,30.59,South,172,6.3,6.3,78,0.00,,,0.00,VWS V13.01,2013-01-15 12:45:00,
2013-01-15 04:50:00,33.4,27.3,30.59,South,172,3.6,4.9,78,0.00,,,0.00,VWS V13.01,2013-01-15 12:50:00,
2013-01-15 04:55:00,33.4,27.3,30.59,South,172,3.6,3.6,78,0.00,,,0.00,VWS V13.01,2013-01-15 12:55:00,
2013-01-15 05:00:00,33.3,27.1,30.59,South,172,7.6,7.6,78,0.00,,,0.00,VWS V13.01,2013-01-15 13:00:00,
2013-01-15 05:05:00,33.3,27.5,30.59,South,172,4.9,5.4,79,0.00,,,0.00,VWS V13.01,2013-01-15 13:05:00,
2013-01-15 05:10:00,33.3,27.5,30.59,South,172,3.6,3.6,79,0.00,,,0.00,VWS V13.01,2013-01-15 13:10:00,
2013-01-15 05:15:00,33.3,27.5,30.59,South,172,2.7,2.7,79,0.00,,,0.00,VWS V13.01,2013-01-15 13:15:00,
2013-01-15 05:20:00,33.3,27.8,30.59,South,172,3.1,3.1,80,0.00,,,0.00,VWS V13.01,2013-01-15 13:20:00,
2013-01-15 05:25:00,33.3,27.8,30.59,South,172,2.2,2.2,80,0.00,,,0.00,VWS V13.01,2013-01-15 13:25:00,
2013-01-15 05:30:00,33.4,27.9,30.59,South,172,2.2,2.2,80,0.00,,,0.00,VWS V13.01,2013-01-15 13:30:00,
2013-01-15 05:35:00,33.4,27.9,30.59,South,172,4.0,5.4,80,0.00,,,0.00,VWS V13.01,2013-01-15 13:35:00,
2013-01-15 05:40:00,33.3,27.8,30.59,South,172,5.8,6.3,80,0.00,,,0.00,VWS V13.01,2013-01-15 13:40:00,
2013-01-15 05:45:00,33.3,27.8,30.59,South,172,3.1,3.1,80,0.00,,,0.00,VWS V13.01,2013-01-15 13:45:00,
2013-01-15 05:50:00,33.3,28.1,30.59,South,172,4.9,4.9,81,0.00,,,0.00,VWS V13.01,2013-01-15 13:50:00,
2013-01-15 05:55:00,33.3,27.8,30.59,South,172,3.1,4.0,80,0.00,,,0.00,VWS V13.01,2013-01-15 13:55:00,
2013-01-15 06:00:00,33.3,27.8,30.59,South,172,2.7,2.7,80,0.00,,,0.00,VWS V13.01,2013-01-15 14:00:00,
2013-01-15 06:05:00,33.1,27.6,30.59,South,172,3.1,3.1,80,0.00,,,0.00,VWS V13.01,2013-01-15 14:05:00,
2013-01-15 06:10:00,32.9,27.4,30.59,South,172,3.1,4.9,80,0.00,,,0.00,VWS V13.01,2013-01-15 14:10:00,
2013-01-15 06:15:00,32.7,27.2,30.59,South,172,4.9,4.9,80,0.00,,,0.00,VWS V13.01,2013-01-15 14:15:00,
2013-01-15 06:20:00,32.7,27.2,30.59,South,172,5.4,5.4,80,0.00,,,0.00,VWS V13.01,2013-01-15 14:20:00,
2013-01-15 06:25:00,32.7,27.2,30.59,South,172,7.2,7.2,80,0.00,,,0.00,VWS V13.01,2013-01-15 14:25:00,
2013-01-15 06:30:00,32.5,27.1,30.59,South,172,4.9,7.6,80,0.00,,,0.00,VWS V13.01,2013-01-15 14:30:00,
2013-01-15 06:35:00,32.5,27.1,30.59,South,172,6.7,6.7,80,0.00,,,0.00,VWS V13.01,2013-01-15 14:35:00,
2013-01-15 06:40:00,32.4,26.9,30.59,South,172,5.8,5.8,80,0.00,,,0.00,VWS V13.01,2013-01-15 14:40:00,
2013-01-15 06:45:00,32.4,26.9,30.59,South,172,5.8,8.3,80,0.00,,,0.00,VWS V13.01,2013-01-15 14:45:00,
2013-01-15 06:50:00,32.4,27.2,30.59,South,172,7.6,7.6,81,0.00,,,0.00,VWS V13.01,2013-01-15 14:50:00,
2013-01-15 06:55:00,32.4,27.2,30.59,South,172,4.0,7.6,81,0.00,,,0.00,VWS V13.01,2013-01-15 14:55:00,
2013-01-15 07:00:00,32.5,28.0,30.59,South,172,6.3,6.3,83,0.00,,,0.00,VWS V13.01,2013-01-15 15:00:00,
2013-01-15 07:05:00,32.5,28.0,30.59,South,172,4.9,5.8,83,0.00,,,0.00,VWS V13.01,2013-01-15 15:05:00,
2013-01-15 07:10:00,32.4,27.8,30.59,South,172,5.8,5.8,83,0.00,,,0.00,VWS V13.01,2013-01-15 15:10:00,
2013-01-15 07:15:00,32.4,27.8,30.59,South,172,2.7,3.1,83,0.00,,,0.00,VWS V13.01,2013-01-15 15:15:00,
2013-01-15 07:20:00,32.2,27.6,30.59,South,172,5.8,5.8,83,0.00,,,0.00,VWS V13.01,2013-01-15 15:20:00,
2013-01-15 07:25:00,32.0,27.4,30.59,South,172,3.1,3.1,83,0.00,,,0.00,VWS V13.01,2013-01-15 15:25:00,
2013-01-15 07:30:00,32.0,27.4,30.59,South,172,6.3,6.3,83,0.00,,,0.00,VWS V13.01,2013-01-15 15:30:00,
2013-01-15 07:35:00,32.0,27.4,30.59,South,172,0.0,2.2,83,0.00,,,0.00,VWS V13.01,2013-01-15 15:35:00,
2013-01-15 07:40:00,32.0,27.4,30.59,South,172,0.0,0.0,83,0.00,,,0.00,VWS V13.01,2013-01-15 15:40:00,
2013-01-15 07:45:00,31.8,27.3,30.59,South,172,0.0,2.2,83,0.00,,,0.00,VWS V13.01,2013-01-15 15:45:00,
2013-01-15 07:50:00,31.8,27.3,30.59,South,172,0.0,0.0,83,0.00,,,0.00,VWS V13.01,2013-01-15 15:50:00,
2013-01-15 07:55:00,32.0,27.7,30.59,South,172,0.0,0.0,84,0.00,,,0.00,VWS V13.01,2013-01-15 15:55:00,
2013-01-15 08:00:00,31.8,27.3,30.59,South,172,0.0,0.0,83,0.00,,,0.00,VWS V13.01,2013-01-15 16:00:00,
2013-01-15 08:05:00,31.8,27.3,30.59,South,172,0.0,0.0,83,0.00,,,0.00,VWS V13.01,2013-01-15 16:05:00,
2013-01-15 08:10:00,32.2,27.9,30.59,South,172,0.0,0.0,84,0.00,,,0.00,VWS V13.01,2013-01-15 16:10:00,
2013-01-15 08:15:00,32.7,29.0,30.59,South,172,0.0,0.0,86,0.00,,,0.00,VWS V13.01,2013-01-15 16:15:00,
2013-01-15 08:20:00,32.7,28.7,30.62,South,172,0.0,3.6,85,0.00,,,0.00,VWS V13.01,2013-01-15 16:20:00,
2013-01-15 08:25:00,32.9,28.9,30.62,South,172,4.0,4.0,85,0.00,,,0.00,VWS V13.01,2013-01-15 16:25:00,
2013-01-15 08:30:00,33.3,29.5,30.62,South,172,2.2,3.1,86,0.00,,,0.00,VWS V13.01,2013-01-15 16:30:00,
2013-01-15 08:35:00,33.6,29.9,30.62,South,172,0.0,8.1,86,0.00,,,0.00,VWS V13.01,2013-01-15 16:35:00,
2013-01-15 08:40:00,33.8,30.1,30.62,South,172,11.0,11.0,86,0.00,,,0.00,VWS V13.01,2013-01-15 16:40:00,
2013-01-15 08:45:00,34.2,29.8,30.62,South,172,4.0,4.0,84,0.00,,,0.00,VWS V13.01,2013-01-15 16:45:00,
2013-01-15 08:50:00,34.3,29.1,30.62,South,172,5.8,5.8,81,0.00,,,0.00,VWS V13.01,2013-01-15 16:50:00,
2013-01-15 08:55:00,34.7,27.3,30.62,South,172,9.6,9.6,74,0.00,,,0.00,VWS V13.01,2013-01-15 16:55:00,
2013-01-15 09:00:00,35.1,23.4,30.62,South,172,4.9,6.3,62,0.00,,,0.00,VWS V13.01,2013-01-15 17:00:00,
2013-01-15 09:05:00,35.4,22.1,30.62,South,172,3.6,3.6,58,0.00,,,0.00,VWS V13.01,2013-01-15 17:05:00,
2013-01-15 09:10:00,35.6,20.6,30.62,South,172,5.8,5.8,54,0.00,,,0.00,VWS V13.01,2013-01-15 17:10:00,
2013-01-15 09:15:00,35.8,20.3,30.62,South,172,3.1,3.1,53,0.00,,,0.00,VWS V13.01,2013-01-15 17:15:00,
2013-01-15 09:20:00,35.4,20.0,30.62,South,172,2.2,3.1,53,0.00,,,0.00,VWS V13.01,2013-01-15 17:20:00,
2013-01-15 09:25:00,35.6,20.6,30.62,South,172,2.7,2.7,54,0.00,,,0.00,VWS V13.01,2013-01-15 17:25:00,
2013-01-15 09:30:00,36.3,21.7,30.62,South,172,2.7,2.7,55,0.00,,,0.00,VWS V13.01,2013-01-15 17:30:00,
2013-01-15 09:35:00,36.7,20.7,30.62,South,172,3.1,3.1,52,0.00,,,0.00,VWS V13.01,2013-01-15 17:35:00,
2013-01-15 09:40:00,37.0,20.6,30.62,South,172,3.1,3.1,51,0.00,,,0.00,VWS V13.01,2013-01-15 17:40:00,
2013-01-15 09:45:00,37.6,20.2,30.62,South,172,4.0,4.0,49,0.00,,,0.00,VWS V13.01,2013-01-15 17:45:00,
2013-01-15 09:50:00,38.1,19.7,30.62,South,172,6.3,6.3,47,0.00,,,0.00,VWS V13.01,2013-01-15 17:50:00,
2013-01-15 09:55:00,38.7,18.6,30.62,South,172,4.0,8.3,44,0.00,,,0.00,VWS V13.01,2013-01-15 17:55:00,
2013-01-15 10:00:00,39.2,18.6,30.62,South,172,3.1,3.1,43,0.00,,,0.00,VWS V13.01,2013-01-15 18:00:00,
2013-01-15 10:05:00,39.7,18.5,30.62,South,172,7.6,7.6,42,0.00,,,0.00,VWS V13.01,2013-01-15 18:05:00,
2013-01-15 10:10:00,39.9,18.7,30.62,South,172,3.1,4.0,42,0.00,,,0.00,VWS V13.01,2013-01-15 18:10:00,
2013-01-15 10:15:00,39.9,18.7,30.62,South,172,3.6,3.6,42,0.00,,,0.00,VWS V13.01,2013-01-15 18:15:00,
2013-01-15 10:20:00,39.9,18.7,30.62,South,172,7.2,7.2,42,0.00,,,0.00,VWS V13.01,2013-01-15 18:20:00,
2013-01-15 10:25:00,40.3,18.5,30.62,South,172,5.8,7.6,41,0.00,,,0.00,VWS V13.01,2013-01-15 18:25:00,
2013-01-15 10:30:00,40.6,18.8,30.62,South,172,5.8,8.7,41,0.00,,,0.00,VWS V13.01,2013-01-15 18:30:00,
2013-01-15 10:35:00,40.8,19.0,30.62,South,172,3.6,5.8,41,0.00,,,0.00,VWS V13.01,2013-01-15 18:35:00,
2013-01-15 10:40:00,40.8,19.0,30.65,South,172,5.4,6.3,41,0.00,,,0.00,VWS V13.01,2013-01-15 18:40:00,
2013-01-15 10:45:00,41.2,19.3,30.65,South,172,8.3,8.3,41,0.00,,,0.00,VWS V13.01,2013-01-15 18:45:00,
2013-01-15 10:50:00,41.4,18.9,30.65,South,172,4.0,8.1,40,0.00,,,0.00,VWS V13.01,2013-01-15 18:50:00,
2013-01-15 10:55:00,41.2,18.7,30.65,South,172,5.4,8.3,40,0.00,,,0.00,VWS V13.01,2013-01-15 18:55:00,
2013-01-15 11:00:00,41.4,18.9,30.65,SE,134,6.3,10.1,40,0.00,,,0.00,VWS V13.01,2013-01-15 19:00:00,
2013-01-15 11:05:00,41.5,19.0,30.65,ESE,122,5.8,9.6,40,0.00,,,0.00,VWS V13.01,2013-01-15 19:05:00,
2013-01-15 11:10:00,41.5,19.0,30.62,ESE,122,5.4,8.7,40,0.00,,,0.00,VWS V13.01,2013-01-15 19:10:00,
2013-01-15 11:15:00,41.9,19.4,30.62,ESE,111,5.8,8.3,40,0.00,,,0.00,VWS V13.01,2013-01-15 19:15:00,
2013-01-15 11:20:00,41.9,19.4,30.62,ESE,111,8.3,8.3,40,0.00,,,0.00,VWS V13.01,2013-01-15 19:20:00,
2013-01-15 11:25:00,41.7,19.2,30.62,ESE,111,10.1,10.5,40,0.00,,,0.00,VWS V13.01,2013-01-15 19:25:00,
2013-01-15 11:30:00,41.9,19.4,30.62,ESE,111,10.1,10.1,40,0.00,,,0.00,VWS V13.01,2013-01-15 19:30:00,
2013-01-15 11:35:00,41.9,19.4,30.62,SE,142,8.1,8.7,40,0.00,,,0.00,VWS V13.01,2013-01-15 19:35:00,
2013-01-15 11:40:00,42.3,19.7,30.62,SSE,163,5.8,5.8,40,0.00,,,0.00,VWS V13.01,2013-01-15 19:40:00,
2013-01-15 11:45:00,43.0,19.7,30.62,SE,135,8.3,8.3,39,0.00,,,0.00,VWS V13.01,2013-01-15 19:45:00,
2013-01-15 11:50:00,42.8,19.6,30.62,ESE,118,6.3,11.0,39,0.00,,,0.00,VWS V13.01,2013-01-15 19:50:00,
2013-01-15 11:55:00,42.3,19.7,30.62,ESE,110,8.7,10.1,40,0.00,,,0.00,VWS V13.01,2013-01-15 19:55:00,
2013-01-15 12:00:00,42.3,19.7,30.62,SE,136,7.6,8.1,40,0.00,,,0.00,VWS V13.01,2013-01-15 20:00:00,
2013-01-15 12:05:00,42.4,19.8,30.62,ESE,102,8.1,10.5,40,0.00,,,0.00,VWS V13.01,2013-01-15 20:05:00,
2013-01-15 12:10:00,42.6,20.0,30.62,ESE,110,13.2,13.2,40,0.00,,,0.00,VWS V13.01,2013-01-15 20:10:00,
2013-01-15 12:15:00,43.0,19.7,30.62,East,98,11.0,11.9,39,0.00,,,0.00,VWS V13.01,2013-01-15 20:15:00,
2013-01-15 12:20:00,43.3,20.1,30.62,East,99,5.8,9.6,39,0.00,,,0.00,VWS V13.01,2013-01-15 20:20:00,
2013-01-15 12:25:00,43.3,20.1,30.62,East,100,5.4,8.3,39,0.00,,,0.00,VWS V13.01,2013-01-15 20:25:00,
2013-01-15 12:30:00,43.5,20.2,30.62,SE,128,10.1,12.3,39,0.00,,,0.00,VWS V13.01,2013-01-15 20:30:00,
2013-01-15 12:35:00,43.7,20.4,30.62,SE,126,5.4,8.7,39,0.00,,,0.00,VWS V13.01,2013-01-15 20:35:00,
2013-01-15 12:40:00,44.2,20.9,30.62,SE,127,8.1,8.1,39,0.00,,,0.00,VWS V13.01,2013-01-15 20:40:00,
2013-01-15 12:45:00,44.4,21.0,30.62,SE,127,8.1,8.3,39,0.00,,,0.00,VWS V13.01,2013-01-15 20:45:00,
2013-01-15 12:50:00,44.8,20.7,30.62,ESE,120,6.3,8.1,38,0.00,,,0.00,VWS V13.01,2013-01-15 20:50:00,
2013-01-15 12:55:00,45.1,21.1,30.59,ESE,121,8.7,8.7,38,0.00,,,0.00,VWS V13.01,2013-01-15 20:55:00,
2013-01-15 13:00:00,45.7,21.5,30.59,SE,124,5.4,5.8,38,0.00,,,0.00,VWS V13.01,2013-01-15 21:00:00,
2013-01-15 13:05:00,46.0,21.9,30.59,SE,124,4.0,4.0,38,0.00,,,0.00,VWS V13.01,2013-01-15 21:05:00,
2013-01-15 13:10:00,46.2,22.0,30.59,SE,124,4.0,5.4,38,0.00,,,0.00,VWS V13.01,2013-01-15 21:10:00,
2013-01-15 13:15:00,46.4,22.2,30.59,SE,124,5.4,6.3,38,0.00,,,0.00,VWS V13.01,2013-01-15 21:15:00,
2013-01-15 13:20:00,46.0,21.9,30.59,ESE,121,7.6,10.1,38,0.00,,,0.00,VWS V13.01,2013-01-15 21:20:00,
2013-01-15 13:25:00,46.6,22.4,30.59,ESE,114,5.8,7.6,38,0.00,,,0.00,VWS V13.01,2013-01-15 21:25:00,
2013-01-15 13:30:00,46.4,22.2,30.59,ESE,109,6.3,11.0,38,0.00,,,0.00,VWS V13.01,2013-01-15 21:30:00,
2013-01-15 13:35:00,46.6,22.4,30.59,ESE,107,7.6,10.1,38,0.00,,,0.00,VWS V13.01,2013-01-15 21:35:00,
2013-01-15 13:40:00,47.1,22.8,30.59,ESE,107,3.1,5.8,38,0.00,,,0.00,VWS V13.01,2013-01-15 21:40:00,
2013-01-15 13:45:00,46.9,22.7,30.59,East,98,5.4,6.3,38,0.00,,,0.00,VWS V13.01,2013-01-15 21:45:00,
2013-01-15 13:50:00,47.1,22.8,30.59,East,100,6.3,8.7,38,0.00,,,0.00,VWS V13.01,2013-01-15 21:50:00,
2013-01-15 13:55:00,47.3,23.0,30.59,East,100,7.6,7.6,38,0.00,,,0.00,VWS V13.01,2013-01-15 21:55:00,
2013-01-15 14:00:00,47.5,23.2,30.59,East,100,8.1,8.1,38,0.00,,,0.00,VWS V13.01,2013-01-15 22:00:00,
2013-01-15 14:05:00,47.7,23.3,30.59,ESE,102,5.4,7.6,38,0.00,,,0.00,VWS V13.01,2013-01-15 22:05:00,
2013-01-15 14:10:00,47.8,23.5,30.59,ESE,123,5.8,8.1,38,0.00,,,0.00,VWS V13.01,2013-01-15 22:10:00,
2013-01-15 14:15:00,47.7,23.3,30.59,ESE,123,6.3,7.6,38,0.00,,,0.00,VWS V13.01,2013-01-15 22:15:00,
2013-01-15 14:20:00,47.7,23.3,30.59,SE,124,4.9,11.0,38,0.00,,,0.00,VWS V13.01,2013-01-15 22:20:00,
2013-01-15 14:25:00,48.0,23.6,30.59,ESE,120,4.0,10.5,38,0.00,,,0.00,VWS V13.01,2013-01-15 22:25:00,
2013-01-15 14:30:00,48.0,23.6,30.59,ESE,120,4.0,6.3,38,0.00,,,0.00,VWS V13.01,2013-01-15 22:30:00,
2013-01-15 14:35:00,48.2,23.2,30.59,ESE,120,4.9,6.3,37,0.00,,,0.00,VWS V13.01,2013-01-15 22:35:00,
2013-01-15 14:40:00,48.0,23.0,30.59,SSE,164,4.9,5.8,37,0.00,,,0.00,VWS V13.01,2013-01-15 22:40:00,
2013-01-15 14:45:00,48.0,23.0,30.59,SSE,164,6.3,8.3,37,0.00,,,0.00,VWS V13.01,2013-01-15 22:45:00,
2013-01-15 14:50:00,48.6,23.5,30.59,SSE,164,9.2,9.2,37,0.00,,,0.00,VWS V13.01,2013-01-15 22:50:00,
2013-01-15 14:55:00,48.4,23.3,30.59,SSE,164,3.6,5.4,37,0.00,,,0.00,VWS V13.01,2013-01-15 22:55:00,
2013-01-15 15:00:00,48.0,23.0,30.59,SSE,164,4.5,5.8,37,0.00,,,0.00,VWS V13.01,2013-01-15 23:00:00,
2013-01-15 15:04:00,48.4,23.3,30.59,SSE,164,3.6,4.9,37,0.00,,,0.00,VWS V13.01,2013-01-15 23:04:00,
2013-01-15 15:09:00,48.0,23.0,30.59,SSE,164,3.1,5.4,37,0.00,,,0.00,VWS V13.01,2013-01-15 23:09:00,
2013-01-15 15:14:00,48.2,23.2,30.59,SSE,164,4.0,5.8,37,0.00,,,0.00,VWS V13.01,2013-01-15 23:14:00,
2013-01-15 15:19:00,48.4,23.3,30.59,SSE,164,5.8,6.3,37,0.00,,,0.00,VWS V13.01,2013-01-15 23:19:00,
2013-01-15 15:24:00,48.4,23.3,30.59,SSE,164,3.6,3.6,37,0.00,,,0.00,VWS V13.01,2013-01-15 23:24:00,
2013-01-15 15:29:00,48.4,23.3,30.59,SSE,164,5.8,6.3,37,0.00,,,0.00,VWS V13.01,2013-01-15 23:29:00,
2013-01-15 15:34:00,48.2,23.2,30.59,SSE,164,5.4,5.4,37,0.00,,,0.00,VWS V13.01,2013-01-15 23:34:00,
2013-01-15 15:39:00,48.2,23.2,30.59,SSE,164,3.1,4.0,37,0.00,,,0.00,VWS V13.01,2013-01-15 23:39:00,
2013-01-15 15:44:00,48.2,23.2,30.59,SSE,164,3.6,4.9,37,0.00,,,0.00,VWS V13.01,2013-01-15 23:44:00,
2013-01-15 15:49:00,48.2,23.2,30.59,SSE,164,2.2,3.6,37,0.00,,,0.00,VWS V13.01,2013-01-15 23:49:00,
2013-01-15 15:54:00,48.4,23.3,30.59,SSE,164,0.0,0.0,37,0.00,,,0.00,VWS V13.01,2013-01-15 23:54:00,
2013-01-15 15:59:00,48.2,23.2,30.59,SSE,164,3.1,4.0,37,0.00,,,0.00,VWS V13.01,2013-01-15 23:59:00,
2013-01-15 16:04:00,47.7,22.7,30.59,SSE,164,3.1,6.3,37,0.00,,,0.00,VWS V13.01,2013-01-16 00:04:00,
2013-01-15 16:09:00,47.3,22.4,30.59,SSE,164,3.1,4.0,37,0.00,,,0.00,VWS V13.01,2013-01-16 00:09:00,
2013-01-15 16:14:00,46.9,22.0,30.59,SSE,164,5.4,5.4,37,0.00,,,0.00,VWS V13.01,2013-01-16 00:14:00,
2013-01-15 16:19:00,46.6,21.7,30.59,SSE,164,5.4,6.7,37,0.00,,,0.00,VWS V13.01,2013-01-16 00:19:00,
2013-01-15 16:24:00,46.4,21.6,30.59,SSE,164,5.4,5.4,37,0.00,,,0.00,VWS V13.01,2013-01-16 00:24:00,
2013-01-15 16:29:00,45.9,21.7,30.59,SSE,164,5.8,8.7,38,0.00,,,0.00,VWS V13.01,2013-01-16 00:29:00,
2013-01-15 16:34:00,45.9,21.7,30.59,SSE,164,2.7,3.6,38,0.00,,,0.00,VWS V13.01,2013-01-16 00:34:00,
2013-01-15 16:39:00,45.5,21.4,30.59,SSE,164,5.4,5.8,38,0.00,,,0.00,VWS V13.01,2013-01-16 00:39:00,
2013-01-15 16:44:00,44.8,20.7,30.59,SSE,164,6.7,6.7,38,0.00,,,0.00,VWS V13.01,2013-01-16 00:44:00,
2013-01-15 16:49:00,44.2,20.9,30.59,SSE,164,8.7,9.2,39,0.00,,,0.00,VWS V13.01,2013-01-16 00:49:00,
2013-01-15 16:54:00,43.7,20.4,30.59,SE,131,7.6,8.7,39,0.00,,,0.00,VWS V13.01,2013-01-16 00:54:00,
2013-01-15 16:59:00,43.5,20.2,30.59,SE,130,5.8,6.3,39,0.00,,,0.00,VWS V13.01,2013-01-16 00:59:00,
2013-01-15 17:04:00,43.0,19.7,30.59,SE,130,10.1,10.1,39,0.00,,,0.00,VWS V13.01,2013-01-16 01:04:00,
2013-01-15 17:09:00,42.6,19.4,30.59,SE,130,4.0,7.2,39,0.00,,,0.00,VWS V13.01,2013-01-16 01:09:00,
2013-01-15 17:14:00,42.3,19.7,30.59,SE,130,4.9,7.2,40,0.00,,,0.00,VWS V13.01,2013-01-16 01:14:00,
2013-01-15 17:19:00,42.1,19.5,30.59,SE,130,2.7,2.7,40,0.00,,,0.00,VWS V13.01,2013-01-16 01:19:00,
2013-01-15 17:24:00,41.7,19.2,30.59,SE,130,0.0,0.0,40,0.00,,,0.00,VWS V13.01,2013-01-16 01:24:00,
2013-01-15 17:29:00,41.5,19.0,30.59,SE,130,3.6,3.6,40,0.00,,,0.00,VWS V13.01,2013-01-16 01:29:00,
2013-01-15 17:34:00,41.2,18.7,30.59,SE,130,5.8,5.8,40,0.00,,,0.00,VWS V13.01,2013-01-16 01:34:00,
2013-01-15 17:39:00,40.8,19.0,30.59,SE,130,2.2,3.1,41,0.00,,,0.00,VWS V13.01,2013-01-16 01:39:00,
2013-01-15 17:44:00,40.6,19.4,30.59,SE,130,7.6,9.2,42,0.00,,,0.00,VWS V13.01,2013-01-16 01:44:00,
2013-01-15 17:49:00,40.5,19.2,30.59,SE,130,2.7,3.1,42,0.00,,,0.00,VWS V13.01,2013-01-16 01:49:00,
2013-01-15 17:54:00,40.3,19.0,30.59,SE,130,3.1,3.1,42,0.00,,,0.00,VWS V13.01,2013-01-16 01:54:00,
2013-01-15 17:59:00,39.7,19.1,30.59,SE,130,4.0,4.0,43,0.00,,,0.00,VWS V13.01,2013-01-16 01:59:00,
2013-01-15 18:04:00,39.6,19.5,30.59,SE,130,0.0,3.1,44,0.00,,,0.00,VWS V13.01,2013-01-16 02:04:00,
2013-01-15 18:09:00,39.4,19.3,30.59,SE,130,2.7,3.6,44,0.00,,,0.00,VWS V13.01,2013-01-16 02:09:00,
2013-01-15 18:14:00,39.4,19.3,30.59,SE,130,3.1,4.0,44,0.00,,,0.00,VWS V13.01,2013-01-16 02:14:00,
2013-01-15 18:19:00,39.2,20.2,30.59,SE,130,6.3,7.6,46,0.00,,,0.00,VWS V13.01,2013-01-16 02:19:00,
2013-01-15 18:24:00,39.0,20.0,30.59,SE,130,3.6,3.6,46,0.00,,,0.00,VWS V13.01,2013-01-16 02:24:00,
2013-01-15 18:29:00,38.8,19.8,30.59,SE,130,3.6,3.6,46,0.00,,,0.00,VWS V13.01,2013-01-16 02:29:00,
2013-01-15 18:34:00,38.8,20.4,30.59,SE,130,4.0,5.4,47,0.00,,,0.00,VWS V13.01,2013-01-16 02:34:00,
2013-01-15 18:39:00,38.7,20.2,30.59,SE,130,3.6,3.6,47,0.00,,,0.00,VWS V13.01,2013-01-16 02:39:00,
2013-01-15 18:44:00,38.5,20.0,30.59,SE,130,0.0,0.0,47,0.00,,,0.00,VWS V13.01,2013-01-16 02:44:00,
2013-01-15 18:49:00,38.5,20.0,30.59,SE,130,3.6,5.4,47,0.00,,,0.00,VWS V13.01,2013-01-16 02:49:00,
2013-01-15 18:54:00,38.7,20.7,30.59,SE,130,5.8,5.8,48,0.00,,,0.00,VWS V13.01,2013-01-16 02:54:00,
2013-01-15 18:59:00,38.5,20.0,30.59,East,83,5.4,5.8,47,0.00,,,0.00,VWS V13.01,2013-01-16 02:59:00,
2013-01-15 19:04:00,38.5,20.5,30.59,East,84,7.6,7.6,48,0.00,,,0.00,VWS V13.01,2013-01-16 03:04:00,
2013-01-15 19:09:00,38.1,20.2,30.59,ESE,103,8.3,8.7,48,0.00,,,0.00,VWS V13.01,2013-01-16 03:09:00,
2013-01-15 19:14:00,38.1,20.2,30.59,East,86,5.4,8.3,48,0.00,,,0.00,VWS V13.01,2013-01-16 03:14:00,
2013-01-15 19:19:00,38.3,20.8,30.59,ESE,105,5.4,10.5,49,0.00,,,0.00,VWS V13.01,2013-01-16 03:19:00,
2013-01-15 19:24:00,38.3,20.8,30.59,East,99,8.1,10.1,49,0.00,,,0.00,VWS V13.01,2013-01-16 03:24:00,
2013-01-15 19:29:00,38.1,20.7,30.59,ESE,103,5.8,8.1,49,0.00,,,0.00,VWS V13.01,2013-01-16 03:29:00,
2013-01-15 19:34:00,37.9,20.5,30.59,ESE,103,6.3,6.3,49,0.00,,,0.00,VWS V13.01,2013-01-16 03:34:00,
2013-01-15 19:39:00,37.9,21.0,30.59,ESE,105,8.3,10.1,50,0.00,,,0.00,VWS V13.01,2013-01-16 03:39:00,
2013-01-15 19:44:00,37.9,21.0,30.59,ESE,105,8.7,8.7,50,0.00,,,0.00,VWS V13.01,2013-01-16 03:44:00,
2013-01-15 19:49:00,37.8,20.8,30.59,ESE,105,8.1,8.1,50,0.00,,,0.00,VWS V13.01,2013-01-16 03:49:00,
2013-01-15 19:54:00,37.8,20.8,30.59,ESE,109,8.1,8.1,50,0.00,,,0.00,VWS V13.01,2013-01-16 03:54:00,
2013-01-15 19:59:00,37.6,20.6,30.59,ESE,105,11.0,11.0,50,0.00,,,0.00,VWS V13.01,2013-01-16 03:59:00,
2013-01-15 20:04:00,37.6,20.6,30.59,East,90,8.3,11.0,50,0.00,,,0.00,VWS V13.01,2013-01-16 04:04:00,
2013-01-15 20:09:00,37.6,20.6,30.59,ESE,106,4.9,6.7,50,0.00,,,0.00,VWS V13.01,2013-01-16 04:09:00,
2013-01-15 20:14:00,37.4,20.9,30.59,ESE,106,8.3,8.3,51,0.00,,,0.00,VWS V13.01,2013-01-16 04:14:00,
2013-01-15 20:19:00,37.4,20.9,30.59,ESE,103,8.1,8.1,51,0.00,,,0.00,VWS V13.01,2013-01-16 04:19:00,
2013-01-15 20:24:00,37.4,20.9,30.59,ESE,109,10.5,15.0,51,0.00,,,0.00,VWS V13.01,2013-01-16 04:24:00,
2013-01-15 20:29:00,37.2,20.8,30.59,East,100,8.1,8.7,51,0.00,,,0.00,VWS V13.01,2013-01-16 04:29:00,
2013-01-15 20:34:00,37.2,21.2,30.59,East,94,8.7,12.3,52,0.00,,,0.00,VWS V13.01,2013-01-16 04:34:00,
2013-01-15 20:39:00,37.2,21.2,30.59,ESE,105,8.3,8.3,52,0.00,,,0.00,VWS V13.01,2013-01-16 04:39:00,
2013-01-15 20:44:00,37.2,21.2,30.59,ESE,110,9.6,10.5,52,0.00,,,0.00,VWS V13.01,2013-01-16 04:44:00,
2013-01-15 20:49:00,37.0,21.1,30.59,ESE,104,10.5,10.5,52,0.00,,,0.00,VWS V13.01,2013-01-16 04:49:00,
2013-01-15 20:54:00,37.0,21.1,30.59,East,100,5.8,8.1,52,0.00,,,0.00,VWS V13.01,2013-01-16 04:54:00,
2013-01-15 20:59:00,37.0,21.5,30.59,ESE,118,8.3,12.3,53,0.00,,,0.00,VWS V13.01,2013-01-16 04:59:00,
2013-01-15 21:00:00,37.0,21.5,30.59,East,90,8.3,10.5,53,0.00,,,0.00,VWS V13.01,2013-01-16 05:00:00,
2013-01-15 21:01:00,37.0,21.5,30.59,East,92,6.3,6.3,53,0.00,,,0.00,VWS V13.01,2013-01-16 05:01:00,
2013-01-15 21:02:00,37.0,21.5,30.59,East,95,8.7,8.7,53,0.00,,,0.00,VWS V13.01,2013-01-16 05:02:00,
2013-01-15 21:07:00,37.0,21.1,30.59,East,95,5.8,10.5,52,0.00,,,0.00,VWS V13.01,2013-01-16 05:07:00,
2013-01-15 21:12:00,36.9,21.3,30.59,ESE,112,5.4,11.0,53,0.00,,,0.00,VWS V13.01,2013-01-16 05:12:00,
2013-01-15 21:17:00,36.9,21.3,30.59,ESE,115,5.4,8.3,53,0.00,,,0.00,VWS V13.01,2013-01-16 05:17:00,
2013-01-15 21:22:00,36.7,21.6,30.59,ESE,117,4.0,5.8,54,0.00,,,0.00,VWS V13.01,2013-01-16 05:22:00,
2013-01-15 21:27:00,36.7,21.6,30.59,ESE,117,6.3,7.6,54,0.00,,,0.00,VWS V13.01,2013-01-16 05:27:00,
2013-01-15 21:32:00,36.7,22.0,30.59,SE,135,7.6,7.6,55,0.00,,,0.00,VWS V13.01,2013-01-16 05:32:00,
2013-01-15 21:37:00,36.7,22.0,30.59,ESE,113,8.7,9.2,55,0.00,,,0.00,VWS V13.01,2013-01-16 05:37:00,
2013-01-15 21:42:00,36.7,22.0,30.59,ESE,117,6.3,11.0,55,0.00,,,0.00,VWS V13.01,2013-01-16 05:42:00,
2013-01-15 21:47:00,36.7,22.0,30.59,ESE,109,8.7,8.7,55,0.00,,,0.00,VWS V13.01,2013-01-16 05:47:00,
2013-01-15 21:52:00,36.7,22.0,30.59,ESE,107,5.4,10.5,55,0.00,,,0.00,VWS V13.01,2013-01-16 05:52:00,
2013-01-15 21:57:00,36.7,22.0,30.59,ESE,109,11.0,11.0,55,0.00,,,0.00,VWS V13.01,2013-01-16 05:57:00,
2013-01-15 22:02:00,36.7,22.0,30.59,East,92,8.1,8.1,55,0.00,,,0.00,VWS V13.01,2013-01-16 06:02:00,
2013-01-15 22:07:00,36.7,22.5,30.59,ESE,115,8.7,11.0,56,0.00,,,0.00,VWS V13.01,2013-01-16 06:07:00,
2013-01-15 22:12:00,36.7,22.5,30.59,ESE,108,10.1,10.1,56,0.00,,,0.00,VWS V13.01,2013-01-16 06:12:00,
2013-01-15 22:17:00,36.5,22.3,30.59,ESE,113,8.3,8.7,56,0.00,,,0.00,VWS V13.01,2013-01-16 06:17:00,
2013-01-15 22:22:00,36.3,22.6,30.59,ESE,120,4.9,8.3,57,0.00,,,0.00,VWS V13.01,2013-01-16 06:22:00,
2013-01-15 22:27:00,36.3,22.6,30.59,ESE,107,8.1,10.5,57,0.00,,,0.00,VWS V13.01,2013-01-16 06:27:00,
2013-01-15 22:32:00,36.5,23.1,30.59,ESE,120,14.1,14.1,58,0.00,,,0.00,VWS V13.01,2013-01-16 06:32:00,
2013-01-15 22:37:00,36.3,22.6,30.59,ESE,118,8.3,9.2,57,0.00,,,0.00,VWS V13.01,2013-01-16 06:37:00,
2013-01-15 22:42:00,36.3,22.6,30.59,ESE,122,9.6,9.6,57,0.00,,,0.00,VWS V13.01,2013-01-16 06:42:00,
2013-01-15 22:47:00,36.1,22.8,30.59,ESE,123,8.7,8.7,58,0.00,,,0.00,VWS V13.01,2013-01-16 06:47:00,
2013-01-15 22:52:00,36.1,23.2,30.59,ESE,115,10.1,11.0,59,0.00,,,0.00,VWS V13.01,2013-01-16 06:52:00,
2013-01-15 22:57:00,36.3,23.4,30.59,ESE,103,9.6,9.6,59,0.00,,,0.00,VWS V13.01,2013-01-16 06:57:00,
2013-01-15 23:02:00,36.3,23.4,30.59,ESE,108,8.3,10.1,59,0.00,,,0.00,VWS V13.01,2013-01-16 07:02:00,
2013-01-15 23:07:00,36.3,23.0,30.59,ESE,103,8.7,8.7,58,0.00,,,0.00,VWS V13.01,2013-01-16 07:07:00,
2013-01-15 23:12:00,36.5,23.5,30.59,ESE,109,8.1,11.0,59,0.00,,,0.00,VWS V13.01,2013-01-16 07:12:00,
2013-01-15 23:17:00,36.3,23.4,30.59,ESE,116,10.5,10.5,59,0.00,,,0.00,VWS V13.01,2013-01-16 07:17:00,
2013-01-15 23:22:00,36.3,23.4,30.59,ESE,102,7.6,10.1,59,0.00,,,0.00,VWS V13.01,2013-01-16 07:22:00,
2013-01-15 23:27:00,36.1,23.2,30.59,ESE,111,6.3,8.1,59,0.00,,,0.00,VWS V13.01,2013-01-16 07:27:00,
2013-01-15 23:32:00,36.5,24.0,30.59,ESE,109,12.3,15.4,60,0.00,,,0.00,VWS V13.01,2013-01-16 07:32:00,
2013-01-15 23:37:00,36.7,22.9,30.59,ESE,110,5.4,6.3,57,0.00,,,0.00,VWS V13.01,2013-01-16 07:37:00,
2013-01-15 23:42:00,36.5,22.7,30.59,ESE,112,5.8,10.1,57,0.00,,,0.00,VWS V13.01,2013-01-16 07:42:00,
2013-01-15 23:47:00,36.7,22.9,30.59,ESE,108,5.8,10.5,57,0.00,,,0.00,VWS V13.01,2013-01-16 07:47:00,
2013-01-15 23:52:00,36.5,22.7,30.59,ESE,113,8.7,8.7,57,0.00,,,0.00,VWS V13.01,2013-01-16 07:52:00,
2013-01-15 23:57:00,36.5,23.1,30.59,ESE,110,5.4,8.7,58,0.00,,,0.00,VWS V13.01,2013-01-16 07:57:00,